Weather History for 28440 - September, 2013

Change the Weather History Date:

Sunday, September 1, 2013

  Actual Average Record
Temperature  
Mean Temperature 61 °F -  
Max Temperature 71 °F - - ()
Min Temperature 51 °F - - ()
Degree Days  
Heating Degree Days 4    
Growing Degree Days 11 (Base 50)    
Moisture  
Dew Point 54 °F    
Average Humidity 77    
Maximum Humidity 100    
Minimum Humidity 43    
Precipitation  
Precipitation 0.00 in 0.07 in - ()
Sea Level Pressure  
Sea Level Pressure 30.01 in    
Wind  
Wind Speed 3 mph ()    
Max Wind Speed 9 mph    
Max Gust Speed -    
Visibility 6.6 miles    
Events      
T = Trace of Precipitation, MM = Missing Value Source: Averaged Metar Reports

Daily Weather History Graph

Daily Weather History Graph

Search for Another Location

Airport or City:

Trip Planner

Search our weather history database for the weather conditions in past years. The results will help you decide how hot, cold, wet, or windy it might be!

Date:

Astronomy

Sep. 01, 2013 Rise Set
Actual Time 6:59 AM YEKT 8:53 PM YEKT
Civil Twilight 6:19 AM YEKT 9:34 PM YEKT
Nautical Twilight 5:28 AM YEKT 10:24 PM YEKT
Astronomical Twilight 4:27 AM YEKT 11:24 PM YEKT
Moon 2:27 AM YEKT (9/1) 6:41 PM YEKT (9/1)
Length of Visible Light 15h 14m
Length of Day
13h 54m
Waning Crescent, 17% of the Moon is Illuminated
Sep 1
Waning Crescent
Sep 5
New
Sep 12
First Quarter
Sep 19
Full
Sep 27
Last Quarter

Hourly Weather History & Observations

Time (YEKT) Temp. Dew Point Humidity Pressure Visibility Wind Dir Wind Speed Gust Speed Precip Events Conditions
12:00 AM 53.6 °F 51.8 °F 94% 30.04 in - West 4.5 mph - N/A   Clear
12:30 AM 53.6 °F 51.8 °F 94% 30.04 in - SE 2.2 mph - N/A   Clear
1:00 AM 51.8 °F 51.8 °F 100% 30.04 in - South 2.2 mph - N/A   Clear
1:30 AM 53.6 °F 53.6 °F 100% 30.04 in - SSW 4.5 mph - N/A   Clear
2:00 AM 53.6 °F 51.8 °F 94% 30.04 in - SSW 4.5 mph - N/A   Clear
2:30 AM 53.6 °F 51.8 °F 94% 30.04 in - South 2.2 mph - N/A   Clear
3:00 AM 56 °F 53 °F 84% 30.04 in 6 mi West 2.2 mph - -   Overcast
3:00 AM 53.6 °F 53.6 °F 100% 30.04 in - South 4.5 mph - N/A   Clear
3:30 AM 55.4 °F 53.6 °F 94% 30.04 in - South 4.5 mph - N/A   Clear
4:00 AM 55.4 °F 53.6 °F 94% 30.04 in - NE 2.2 mph - N/A   Clear
4:30 AM 53.6 °F 51.8 °F 94% 30.04 in - Calm Calm - N/A   Clear
5:00 AM 53.6 °F 51.8 °F 94% 30.04 in 4.3 mi SSW 4.5 mph - N/A   Mostly Cloudy
5:30 AM 53.6 °F 51.8 °F 94% 30.04 in 4.3 mi South 4.5 mph - N/A   Mostly Cloudy
6:00 AM 55 °F 52 °F 87% 30.04 in 6 mi SSW 2.2 mph - -   Overcast
6:00 AM 53.6 °F 51.8 °F 94% 30.04 in 4.3 mi South 4.5 mph - N/A   Mostly Cloudy
6:30 AM 53.6 °F 51.8 °F 94% 30.04 in 1.8 mi South 4.5 mph - N/A   Mostly Cloudy
7:00 AM 53.6 °F 51.8 °F 94% 30.04 in 4.3 mi SSE 2.2 mph - N/A   Mostly Cloudy
7:30 AM 53.6 °F 51.8 °F 94% 30.04 in - South 2.2 mph - N/A   Clear
8:00 AM 53.6 °F 51.8 °F 94% 30.04 in - SSE 2.2 mph - N/A   Clear
8:30 AM 53.6 °F 51.8 °F 94% 30.04 in - ESE 2.2 mph - N/A   Clear
9:00 AM 57.2 °F 55.4 °F 94% 30.04 in - South 2.2 mph - N/A   Clear
9:30 AM 57.2 °F 55.4 °F 94% 30.04 in - SSE 2.2 mph - N/A   Clear
10:00 AM 59.0 °F 55.4 °F 88% 30.04 in - SSE 2.2 mph - N/A   Clear
10:30 AM 60.8 °F 55.4 °F 82% 30.01 in - South 2.2 mph - N/A   Clear
11:00 AM 62.6 °F 55.4 °F 77% 30.01 in - South 4.5 mph - N/A   Clear
11:30 AM 64.4 °F 55.4 °F 73% 30.01 in - SSE 6.7 mph - N/A   Clear
12:00 PM 66 °F 53 °F 54% 30.00 in 12 mi SE 2.2 mph - -   Scattered Clouds
12:00 PM 66.2 °F 55.4 °F 68% 30.01 in - SSE 4.5 mph - N/A   Clear
12:30 PM 68.0 °F 55.4 °F 64% 30.01 in - South 4.5 mph - N/A   Clear
1:00 PM 68.0 °F 55.4 °F 64% 30.01 in - SSE 2.2 mph - N/A   Clear
1:30 PM 68.0 °F 55.4 °F 64% 30.01 in - NE 2.2 mph - N/A   Clear
2:00 PM 71.6 °F 57.2 °F 60% 30.01 in - Variable 2.2 mph - N/A   Clear
2:30 PM 69.8 °F 55.4 °F 60% 30.01 in - Variable 2.2 mph - N/A   Clear
3:00 PM 69 °F 51 °F 43% 29.98 in 12 mi Calm Calm - -   Overcast
3:00 PM 69.8 °F 55.4 °F 60% 30.01 in - North 2.2 mph - N/A   Clear
3:30 PM 69.8 °F 55.4 °F 60% 30.01 in - NE 4.5 mph - N/A   Clear
4:00 PM 71.6 °F 57.2 °F 60% 29.98 in - East 2.2 mph - N/A   Clear
4:30 PM 71.6 °F 57.2 °F 60% 29.98 in - South 4.5 mph - N/A   Clear
5:00 PM 69.8 °F 55.4 °F 60% 29.98 in - SW 6.7 mph - N/A   Clear
5:30 PM 69.8 °F 57.2 °F 64% 29.98 in - SW 6.7 mph - N/A   Clear
6:00 PM 69 °F 55 °F 51% 29.96 in 12 mi South 4.5 mph - -   Overcast
6:00 PM 69.8 °F 57.2 °F 64% 29.98 in - SW 6.7 mph - N/A   Clear
6:30 PM 69.8 °F 57.2 °F 64% 29.98 in - SSW 6.7 mph - N/A   Clear
7:00 PM 69.8 °F 57.2 °F 64% 29.98 in - South 4.5 mph - N/A   Clear
7:30 PM 68.0 °F 57.2 °F 68% 29.95 in - SSE 4.5 mph - N/A   Clear
8:00 PM 66.2 °F 55.4 °F 68% 29.95 in - SE 4.5 mph - N/A   Clear
8:30 PM 66.2 °F 55.4 °F 68% 29.95 in - SE 4.5 mph - N/A   Clear
9:00 PM 66 °F 54 °F 57% 29.93 in 6 mi SE 4.5 mph - -   Overcast
9:00 PM 64.4 °F 55.4 °F 73% 29.95 in - ESE 4.5 mph - N/A   Clear
9:30 PM 64.4 °F 55.4 °F 73% 29.95 in - SE 4.5 mph - N/A   Clear
10:00 PM 64.4 °F 55.4 °F 73% 29.95 in - SSW 2.2 mph - N/A   Clear
10:30 PM 64.4 °F 57.2 °F 77% 29.95 in - SSW 6.7 mph - N/A   Clear
11:00 PM 64.4 °F 55.4 °F 73% 29.95 in - SW 6.7 mph - N/A   Clear
11:30 PM 64.4 °F 53.6 °F 68% 29.95 in - SW 8.9 mph - N/A   Clear